Time,TemperatureF,DewpointF,PressureIn,WindDirection,WindDirectionDegrees,WindSpeedMPH,WindSpeedGustMPH,Humidity,HourlyPrecipIn,Conditions,Clouds,dailyrainin,SolarRadiationWatts/m^2,SoftwareType,DateUTC
2013-04-03 00:02:00,26.0,10.0,-100.00,East,79,7.0,12.0,51,0.00,,,0.00,0.000000,,2013-04-03 08:02:00,
2013-04-03 00:12:00,26.0,10.0,-100.00,East,79,7.0,12.0,51,0.00,,,0.00,0.000000,,2013-04-03 08:12:00,
2013-04-03 00:22:00,26.0,10.0,-100.00,East,79,7.0,12.0,51,0.00,,,0.00,0.000000,,2013-04-03 08:22:00,
2013-04-03 00:52:00,25.0,9.0,-100.00,ENE,77,6.0,13.0,51,0.00,,,0.00,0.000000,,2013-04-03 08:52:00,
2013-04-03 01:02:00,25.0,9.0,-100.00,ENE,77,6.0,13.0,51,0.00,,,0.00,0.000000,,2013-04-03 09:02:00,
2013-04-03 01:12:00,25.0,9.0,-100.00,ENE,77,6.0,13.0,51,0.00,,,0.00,0.000000,,2013-04-03 09:12:00,
2013-04-03 01:22:00,25.0,9.0,-100.00,ENE,77,6.0,13.0,51,0.00,,,0.00,0.000000,,2013-04-03 09:22:00,
2013-04-03 01:53:00,24.0,9.0,-100.00,East,88,8.0,13.0,53,0.00,,,0.00,0.000000,,2013-04-03 09:53:00,
2013-04-03 02:02:00,24.0,9.0,-100.00,East,88,8.0,13.0,53,0.00,,,0.00,0.000000,,2013-04-03 10:02:00,
2013-04-03 02:12:00,24.0,9.0,-100.00,East,88,8.0,13.0,53,0.00,,,0.00,0.000000,,2013-04-03 10:12:00,
2013-04-03 02:22:00,24.0,9.0,-100.00,East,88,8.0,13.0,53,0.00,,,0.00,0.000000,,2013-04-03 10:22:00,
2013-04-03 02:53:00,22.0,8.0,-100.00,East,83,6.0,12.0,55,0.00,,,0.00,0.000000,,2013-04-03 10:53:00,
2013-04-03 03:02:00,22.0,8.0,-100.00,East,83,6.0,12.0,55,0.00,,,0.00,0.000000,,2013-04-03 11:02:00,
2013-04-03 03:12:00,22.0,8.0,-100.00,East,83,6.0,12.0,55,0.00,,,0.00,0.000000,,2013-04-03 11:12:00,
2013-04-03 03:22:00,22.0,8.0,-100.00,East,83,6.0,12.0,55,0.00,,,0.00,0.000000,,2013-04-03 11:22:00,
2013-04-03 03:53:00,21.0,8.0,-100.00,East,89,6.0,11.0,56,0.00,,,0.00,0.000000,,2013-04-03 11:53:00,
2013-04-03 04:02:00,21.0,8.0,-100.00,East,89,6.0,11.0,56,0.00,,,0.00,0.000000,,2013-04-03 12:02:00,
2013-04-03 04:12:00,21.0,8.0,-100.00,East,89,6.0,11.0,56,0.00,,,0.00,0.000000,,2013-04-03 12:12:00,
2013-04-03 04:22:00,21.0,8.0,-100.00,East,89,6.0,11.0,56,0.00,,,0.00,0.000000,,2013-04-03 12:22:00,
2013-04-03 04:52:00,20.0,7.0,-100.00,ENE,69,5.0,11.0,57,0.00,,,0.00,0.000000,,2013-04-03 12:52:00,
2013-04-03 05:02:00,20.0,7.0,-100.00,ENE,69,5.0,11.0,57,0.00,,,0.00,0.000000,,2013-04-03 13:02:00,
2013-04-03 05:12:00,20.0,7.0,-100.00,ENE,69,5.0,11.0,57,0.00,,,0.00,0.000000,,2013-04-03 13:12:00,
2013-04-03 05:22:00,20.0,7.0,-100.00,ENE,69,5.0,11.0,57,0.00,,,0.00,0.000000,,2013-04-03 13:22:00,
2013-04-03 05:52:00,20.0,7.0,-100.00,ENE,72,6.0,11.0,57,0.00,,,0.00,0.000000,,2013-04-03 13:52:00,
2013-04-03 06:02:00,20.0,7.0,-100.00,ENE,72,6.0,11.0,57,0.00,,,0.00,0.000000,,2013-04-03 14:02:00,
2013-04-03 06:12:00,20.0,7.0,-100.00,ENE,72,6.0,11.0,57,0.00,,,0.00,0.000000,,2013-04-03 14:12:00,
2013-04-03 06:22:00,20.0,7.0,-100.00,ENE,72,6.0,11.0,57,0.00,,,0.00,0.000000,,2013-04-03 14:22:00,
2013-04-03 06:52:00,19.0,6.0,-100.00,East,79,5.0,10.0,57,0.00,,,0.00,0.000000,,2013-04-03 14:52:00,
2013-04-03 07:02:00,19.0,6.0,-100.00,East,79,5.0,10.0,57,0.00,,,0.00,0.000000,,2013-04-03 15:02:00,
2013-04-03 07:12:00,19.0,6.0,-100.00,East,79,5.0,10.0,57,0.00,,,0.00,0.000000,,2013-04-03 15:12:00,
2013-04-03 07:22:00,19.0,6.0,-100.00,East,79,5.0,10.0,57,0.00,,,0.00,0.000000,,2013-04-03 15:22:00,
2013-04-03 07:53:00,18.0,6.0,-100.00,East,80,5.0,8.0,58,0.00,,,0.00,7.000000,,2013-04-03 15:53:00,
2013-04-03 08:03:00,18.0,6.0,-100.00,East,80,5.0,8.0,58,0.00,,,0.00,7.000000,,2013-04-03 16:03:00,
2013-04-03 08:12:00,18.0,6.0,-100.00,East,80,5.0,8.0,58,0.00,,,0.00,7.000000,,2013-04-03 16:12:00,
2013-04-03 08:23:00,18.0,6.0,-100.00,East,80,5.0,8.0,58,0.00,,,0.00,7.000000,,2013-04-03 16:23:00,
2013-04-03 08:52:00,19.0,6.0,-100.00,East,93,5.0,9.0,56,0.00,,,0.00,38.000000,,2013-04-03 16:52:00,
2013-04-03 09:02:00,19.0,6.0,-100.00,East,93,5.0,9.0,56,0.00,,,0.00,38.000000,,2013-04-03 17:02:00,
2013-04-03 09:13:00,19.0,6.0,-100.00,East,93,5.0,9.0,56,0.00,,,0.00,38.000000,,2013-04-03 17:13:00,
2013-04-03 09:22:00,19.0,6.0,-100.00,East,93,5.0,9.0,56,0.00,,,0.00,38.000000,,2013-04-03 17:22:00,
2013-04-03 09:53:00,24.0,7.0,-100.00,East,79,7.0,10.0,48,0.00,,,0.00,166.000000,,2013-04-03 17:53:00,
2013-04-03 10:02:00,24.0,7.0,-100.00,East,79,7.0,10.0,48,0.00,,,0.00,166.000000,,2013-04-03 18:02:00,
2013-04-03 10:12:00,24.0,7.0,-100.00,East,79,7.0,10.0,48,0.00,,,0.00,166.000000,,2013-04-03 18:12:00,
2013-04-03 10:21:00,24.0,7.0,-100.00,East,79,7.0,10.0,48,0.00,,,0.00,166.000000,,2013-04-03 18:21:00,
2013-04-03 10:52:00,28.0,8.0,-100.00,East,80,7.0,11.0,42,0.00,,,0.00,280.000000,,2013-04-03 18:52:00,
2013-04-03 11:02:00,28.0,8.0,-100.00,East,80,7.0,11.0,42,0.00,,,0.00,280.000000,,2013-04-03 19:02:00,
2013-04-03 11:12:00,28.0,8.0,-100.00,East,80,7.0,11.0,42,0.00,,,0.00,280.000000,,2013-04-03 19:12:00,
2013-04-03 11:22:00,28.0,8.0,-100.00,East,80,7.0,11.0,42,0.00,,,0.00,280.000000,,2013-04-03 19:22:00,
2013-04-03 12:12:00,31.0,8.0,-100.00,East,89,6.0,13.0,38,0.00,,,0.00,379.000000,,2013-04-03 20:12:00,
2013-04-03 12:22:00,31.0,8.0,-100.00,East,89,6.0,13.0,38,0.00,,,0.00,379.000000,,2013-04-03 20:22:00,
2013-04-03 12:53:00,33.0,8.0,-100.00,ESE,105,6.0,11.0,35,0.00,,,0.00,456.000000,,2013-04-03 20:53:00,
2013-04-03 13:02:00,33.0,8.0,-100.00,ESE,105,6.0,11.0,35,0.00,,,0.00,456.000000,,2013-04-03 21:02:00,
2013-04-03 13:12:00,33.0,8.0,-100.00,ESE,105,6.0,11.0,35,0.00,,,0.00,456.000000,,2013-04-03 21:12:00,
2013-04-03 13:22:00,33.0,8.0,-100.00,ESE,105,6.0,11.0,35,0.00,,,0.00,456.000000,,2013-04-03 21:22:00,
2013-04-03 13:52:00,34.0,7.0,-100.00,East,79,8.0,13.0,32,0.00,,,0.00,508.000000,,2013-04-03 21:52:00,
2013-04-03 14:02:00,34.0,7.0,-100.00,East,79,8.0,13.0,32,0.00,,,0.00,508.000000,,2013-04-03 22:02:00,
2013-04-03 14:12:00,34.0,7.0,-100.00,East,79,8.0,13.0,32,0.00,,,0.00,508.000000,,2013-04-03 22:12:00,
2013-04-03 14:22:00,34.0,7.0,-100.00,East,79,8.0,13.0,32,0.00,,,0.00,508.000000,,2013-04-03 22:22:00,
2013-04-03 14:52:00,36.0,8.0,-100.00,ESE,109,7.0,13.0,30,0.00,,,0.00,526.000000,,2013-04-03 22:52:00,
2013-04-03 15:02:00,36.0,8.0,-100.00,ESE,109,7.0,13.0,30,0.00,,,0.00,526.000000,,2013-04-03 23:02:00,
2013-04-03 15:12:00,36.0,8.0,-100.00,ESE,109,7.0,13.0,30,0.00,,,0.00,526.000000,,2013-04-03 23:12:00,
2013-04-03 15:22:00,36.0,8.0,-100.00,ESE,109,7.0,13.0,30,0.00,,,0.00,526.000000,,2013-04-03 23:22:00,
2013-04-03 15:54:00,35.0,7.0,-100.00,East,98,8.0,16.0,31,0.00,,,0.00,510.000000,,2013-04-03 23:54:00,
2013-04-03 16:02:00,35.0,7.0,-100.00,East,98,8.0,16.0,31,0.00,,,0.00,510.000000,,2013-04-04 00:02:00,
2013-04-03 16:12:00,35.0,7.0,-100.00,East,98,8.0,16.0,31,0.00,,,0.00,510.000000,,2013-04-04 00:12:00,
2013-04-03 16:22:00,35.0,7.0,-100.00,East,98,8.0,16.0,31,0.00,,,0.00,510.000000,,2013-04-04 00:22:00,
2013-04-03 16:52:00,34.0,4.0,-100.00,ENE,73,9.0,17.0,28,0.00,,,0.00,460.000000,,2013-04-04 00:52:00,
2013-04-03 17:02:00,34.0,4.0,-100.00,ENE,73,9.0,17.0,28,0.00,,,0.00,460.000000,,2013-04-04 01:02:00,
2013-04-03 17:11:00,34.0,4.0,-100.00,ENE,73,9.0,17.0,28,0.00,,,0.00,460.000000,,2013-04-04 01:11:00,
2013-04-03 17:22:00,34.0,4.0,-100.00,ENE,73,9.0,17.0,28,0.00,,,0.00,460.000000,,2013-04-04 01:22:00,
2013-04-03 17:52:00,33.0,3.0,-100.00,East,84,10.0,16.0,27,0.00,,,0.00,381.000000,,2013-04-04 01:52:00,
2013-04-03 18:02:00,33.0,3.0,-100.00,East,84,10.0,16.0,27,0.00,,,0.00,381.000000,,2013-04-04 02:02:00,
2013-04-03 18:12:00,33.0,3.0,-100.00,East,84,10.0,16.0,27,0.00,,,0.00,381.000000,,2013-04-04 02:12:00,
2013-04-03 18:22:00,33.0,3.0,-100.00,East,84,10.0,16.0,27,0.00,,,0.00,381.000000,,2013-04-04 02:22:00,
2013-04-03 19:02:00,30.0,0.0,-100.00,ENE,72,10.0,17.0,27,0.00,,,0.00,282.000000,,2013-04-04 03:02:00,
2013-04-03 19:11:00,30.0,0.0,-100.00,ENE,72,10.0,17.0,27,0.00,,,0.00,282.000000,,2013-04-04 03:11:00,
2013-04-03 19:22:00,30.0,0.0,-100.00,ENE,72,10.0,17.0,27,0.00,,,0.00,282.000000,,2013-04-04 03:22:00,
2013-04-03 19:53:00,26.0,-2.0,-100.00,ENE,74,11.0,19.0,29,0.00,,,0.00,176.000000,,2013-04-04 03:53:00,
2013-04-03 20:02:00,26.0,-2.0,-100.00,ENE,74,11.0,19.0,29,0.00,,,0.00,176.000000,,2013-04-04 04:02:00,
2013-04-03 20:12:00,26.0,-2.0,-100.00,ENE,74,11.0,19.0,29,0.00,,,0.00,176.000000,,2013-04-04 04:12:00,
2013-04-03 20:22:00,26.0,-2.0,-100.00,ENE,74,11.0,19.0,29,0.00,,,0.00,176.000000,,2013-04-04 04:22:00,
2013-04-03 20:53:00,23.0,-2.0,-100.00,ENE,77,8.0,16.0,33,0.00,,,0.00,64.000000,,2013-04-04 04:53:00,
2013-04-03 21:02:00,23.0,-2.0,-100.00,ENE,77,8.0,16.0,33,0.00,,,0.00,64.000000,,2013-04-04 05:02:00,
2013-04-03 21:12:00,23.0,-2.0,-100.00,ENE,77,8.0,16.0,33,0.00,,,0.00,64.000000,,2013-04-04 05:12:00,
2013-04-03 21:22:00,23.0,-2.0,-100.00,ENE,77,8.0,16.0,33,0.00,,,0.00,64.000000,,2013-04-04 05:22:00,
2013-04-03 21:52:00,20.0,-3.0,-100.00,ENE,77,8.0,18.0,35,0.00,,,0.00,7.000000,,2013-04-04 05:52:00,
2013-04-03 22:02:00,20.0,-3.0,-100.00,ENE,77,8.0,18.0,35,0.00,,,0.00,7.000000,,2013-04-04 06:02:00,
2013-04-03 22:12:00,20.0,-3.0,-100.00,ENE,77,8.0,18.0,35,0.00,,,0.00,7.000000,,2013-04-04 06:12:00,
2013-04-03 22:22:00,20.0,-3.0,-100.00,ENE,77,8.0,18.0,35,0.00,,,0.00,7.000000,,2013-04-04 06:22:00,
2013-04-03 22:52:00,19.0,-4.0,-100.00,East,79,9.0,16.0,36,0.00,,,0.00,0.000000,,2013-04-04 06:52:00,
2013-04-03 23:02:00,19.0,-4.0,-100.00,East,79,9.0,16.0,36,0.00,,,0.00,0.000000,,2013-04-04 07:02:00,
2013-04-03 23:12:00,19.0,-4.0,-100.00,East,79,9.0,16.0,36,0.00,,,0.00,0.000000,,2013-04-04 07:12:00,
2013-04-03 23:21:00,19.0,-4.0,-100.00,East,79,9.0,16.0,36,0.00,,,0.00,0.000000,,2013-04-04 07:21:00,
2013-04-03 23:52:00,18.0,-4.0,-100.00,East,86,9.0,15.0,37,0.00,,,0.00,0.000000,,2013-04-04 07:52:00,